Content
SEND FEEDBACK

Daily
Averages
Monthly
Summary
United Kingdom

BELFAST, NORTHERN IRELAND


Home > Europe > United Kingdom > Northern Ireland
Elevation: 16 feet     Latitude: 54 36N     Longitude: 005 53W

WEATHER
 
SELECT A DAY
Number of Records: 193,467;   Date Range: 7/1/96 - 10/20/14
 
SHARE

PRINT THIS DATA

[ ← Previous Day ]
WEATHER ALMANAC - FEBRUARY 19, 2013
[ Next Day → ]
[ °C ]   °F
Weather ElementAverageHighLow
Temperature40.2 °F46.4 °F (12:20 pm)33.8 °F (6:50 am)
Dewpoint36.4 °F41 °F (10:50 am)32 °F (6:50 am)
Humidity86.9 %100 % (7:20 am)71 % (12:20 pm)
Barometer30.08 in30.12 in (8:20 am)30.04 in (3:20 pm)
Wind Speed3.1 mph6.9 mph (12:50 pm)
Weather ElementAverage
Visibility2.5 mi
Wind DirectionENE (56.1 °)

Weather ElementTotal
Precipitation---
Heating Degree Days24.9 (Base 65)
Averaged from 31 records on February 19, 2013
WEATHER CONDITIONS BREAKOUT
WIND DIRECTION BREAKOUT
WEATHER BY HOUR - FEBRUARY 19, 2013
[ °C ]   °F
Local TimeTemperatureDewpointHumidityBarometerVisibilityWind DirectionWind SpeedGust SpeedPrecipitationEventsConditions
6:50 AM33.8 °F32.0 °F93 %30.09 in0.1 miCalmFogLight Freezing Fog
7:20 AM33.8 °F33.8 °F100 %30.09 in0.1 miVariable2.3 mphFogFog
7:50 AM33.8 °F33.8 °F100 %30.09 in0.1 miCalmFogFog
8:20 AM35.6 °F33.8 °F93 %30.12 in0.1 miCalmFogFog
8:50 AM35.6 °F35.6 °F100 %30.12 in0.1 miSouth (170°)2.3 mphFogFog
9:20 AM35.6 °F35.6 °F100 %30.12 in0.1 miSSE (160°)2.3 mphFogFog
9:50 AM37.4 °F37.4 °F100 %30.12 in0.2 miVariable2.3 mphFogFog
10:20 AM39.2 °F39.2 °F100 %30.12 in0.7 miCalmMostly Cloudy
10:50 AM41.0 °F41.0 °F100 %30.12 in3.1 miVariable2.3 mphScattered Clouds
11:20 AM44.6 °F39.2 °F81 %30.12 in3.1 miSSE (160°)4.6 mphScattered Clouds
11:50 AM44.6 °F39.2 °F81 %30.09 in4.3 miSouth (170°)5.8 mphScattered Clouds
12:20 PM46.4 °F37.4 °F71 %30.09 in3.7 miESE (110°)4.6 mphScattered Clouds
12:50 PM46.4 °F37.4 °F71 %30.09 in3.7 miNNE (30°)6.9 mphScattered Clouds
1:20 PM46.4 °F37.4 °F71 %30.09 in3.7 miVariable3.5 mphScattered Clouds
1:50 PM46.4 °F37.4 °F71 %30.06 in3.7 miSouth (170°)4.6 mphScattered Clouds
2:20 PM46.4 °F37.4 °F71 %30.06 in3.7 miVariable3.5 mph
2:50 PM46.4 °F37.4 °F71 %30.06 in3.7 miESE (120°)4.6 mph
3:20 PM46.4 °F39.2 °F76 %30.04 in3.7 miEast (100°)5.8 mph
3:50 PM44.6 °F39.2 °F81 %30.04 in3.7 miEast (100°)6.9 mphPartly Cloudy
4:20 PM44.6 °F37.4 °F76 %30.04 in3.7 miEast (80°)5.8 mphPartly Cloudy
4:50 PM42.8 °F37.4 °F81 %30.04 in3.7 miENE (70°)5.8 mphPartly Cloudy
5:20 PM41.0 °F35.6 °F81 %30.04 in3.7 miENE (60°)4.6 mphPartly Cloudy
5:50 PM41.0 °F35.6 °F81 %30.06 in3.1 miVariable2.3 mphHaze
6:20 PM39.2 °F35.6 °F87 %30.06 in2.2 miEast (90°)3.5 mphHaze
6:50 PM37.4 °F35.6 °F93 %30.06 in2.2 miVariable2.3 mphHaze
7:20 PM37.4 °F35.6 °F93 %30.06 in2.8 miVariable2.3 mphHaze
7:50 PM37.4 °F35.6 °F93 %30.06 in2.8 miNE (50°)3.5 mphHaze
8:20 PM37.4 °F35.6 °F93 %30.06 in2.8 miVariable2.3 mphHaze
8:50 PM35.6 °F33.8 °F93 %30.06 in2.8 miCalmHaze
9:20 PM35.6 °F33.8 °F93 %30.09 in2.8 miCalmHaze
9:50 PM33.8 °F33.8 °F100 %30.09 in2.5 miEast (100°)2.3 mphHaze
Hourly data recorded from EGAC, located miles away from Belfast, Northern Ireland







STORIES FROM OUR PARTNERS